ヨン彗星

172P/Yeung (2008)

English version
Home page
Total 6,336 html files since Dec. 4, 1995
Updated on April 4, 2008

---------------------------------------------------------------------

・ プロフィール

・ 写真集

・ 軌道要素

The following orbital elements are taken from MPC 54825:

Epoch 2008 Oct. 21.0 TT = JDT 2454760.5
T 2008 Oct. 12.8362 TT                                  MPC
q   2.240466             (2000.0)            P               Q
n   0.1498375      Peri.  178.9977      -0.7759726      +0.6175212
a   3.510663       Node    40.0884      -0.5800975      -0.6186018
e   0.361811       Incl.   11.5180      -0.2476961      -0.4857977
P   6.58
From 110 observations 1993-2003, mean residual 0".5.

・ 星図

・ 光度変化

        H = 14.0  G = 0.15

---------------------------------------------------------------------

軌道要素はMPCのEphemerides and Orbital Elementsに掲載されたものです。
星図は StellaNavigator Ver.2.0 for Windows (アストロアーツ 編著 / アスキー出版局刊) で作成したものです。
光度グラフはComet for Windowsで作成したものです。

---------------------------------------------------------------------

Copyright(C) 1995-2008 Seiichi Yoshida (comet@aerith.net). All rights reserved.